contact:dominique.lefevre@mio.osupytheas.fr, maurice.libes@osupytheas.fr, didier.mallarino@osupytheas.fr
Project:EMSO http://www.emso-fr.org/EMSO-France
Depth: 2436.0 m
Title:EMSO Ligure Ouest : Data MII capteur AQUADOPP
Date,Latitude,Longitude,X_East,Y_North,Z_Up,Amplitude_X,Amplitude_Y,Amplitude_Z,Batterie,SoundSpeed,Heading,Pitch,Roll,Pressure,TIS,Speed,Direction
, degrees North, degrees East, m.s-1, m.s-1,m.s-1, 1, 1, 1, Volt, m.s-1, degree, degree, degree, dbar, degree_C, m.s-1, degree
2022-08-25T00:04:03,42.805,6.029,-0.008,-0.011,-0.032,102.0,103.0,101.0,13.3,1505.2,327.6,-0.7,1.8,2470.965,13.29,0.013,216.0
2022-08-25T00:07:03,42.805,6.029,0.009,0.005,-0.005,103.0,102.0,100.0,13.4,1505.2,325.4,-0.8,1.8,2470.963,13.29,0.01,60.9
2022-08-25T00:10:03,42.805,6.029,-0.016,0.011,-0.037,102.0,103.0,102.0,13.4,1505.2,318.9,-0.7,1.8,2470.941,13.29,0.019,304.5
2022-08-25T00:13:03,42.805,6.029,-0.02,0.008,-0.025,104.0,101.0,101.0,13.3,1505.2,319.3,-0.8,1.8,2470.953,13.29,0.021,291.8
2022-08-25T00:16:03,42.805,6.029,-0.014,-0.018,-0.035,103.0,102.0,101.0,13.3,1505.2,320.1,-0.8,1.8,2470.926,13.29,0.022,217.9
2022-08-25T00:19:03,42.805,6.029,-0.011,-0.006,0.002,103.0,104.0,102.0,13.4,1505.2,324.2,-0.7,1.9,2470.979,13.29,0.012,241.4
2022-08-25T00:22:03,42.805,6.029,-0.026,0.003,-0.022,103.0,103.0,100.0,13.4,1505.2,328.8,-0.8,1.8,2470.945,13.29,0.026,276.6
2022-08-25T00:25:03,42.805,6.029,-0.035,0.0,-0.026,102.0,102.0,101.0,13.3,1505.2,319.3,-0.7,1.8,2470.905,13.29,0.035,270.0
2022-08-25T00:28:03,42.805,6.029,-0.02,0.006,-0.011,103.0,103.0,101.0,13.4,1505.2,326.4,-0.8,1.8,2470.929,13.29,0.02,286.7
2022-08-25T00:31:03,42.805,6.029,-0.021,-0.011,0.003,103.0,104.0,102.0,13.4,1505.2,321.6,-0.8,1.8,2470.959,13.29,0.023,242.4
2022-08-25T00:34:03,42.805,6.029,-0.034,0.014,-0.027,103.0,101.0,101.0,13.4,1505.2,324.6,-0.8,1.8,2470.917,13.29,0.036,292.4
2022-08-25T00:37:03,42.805,6.029,-0.009,0.002,0.0,102.0,103.0,101.0,13.4,1505.2,323.2,-0.8,1.8,2470.908,13.29,0.009,282.5
2022-08-25T00:40:03,42.805,6.029,-0.017,0.01,-0.013,102.0,102.0,101.0,13.4,1505.2,327.6,-0.8,1.8,2470.867,13.29,0.019,300.5
2022-08-25T00:43:03,42.805,6.029,-0.025,0.002,-0.003,102.0,103.0,102.0,13.3,1505.2,321.5,-0.7,1.8,2470.893,13.29,0.025,274.6
2022-08-25T00:46:03,42.805,6.029,-0.023,-0.011,-0.048,102.0,103.0,101.0,13.4,1505.2,329.9,-0.8,1.8,2470.951,13.29,0.025,244.4
2022-08-25T00:49:03,42.805,6.029,-0.025,-0.004,-0.021,104.0,103.0,101.0,13.4,1505.2,327.5,-0.8,1.8,2470.896,13.29,0.025,260.9
2022-08-25T00:52:03,42.805,6.029,-0.005,0.007,0.0,102.0,103.0,101.0,13.4,1505.2,333.1,-0.7,1.8,2470.891,13.29,0.008,324.5
2022-08-25T00:55:03,42.805,6.029,-0.001,-0.011,-0.028,102.0,104.0,101.0,13.3,1505.2,322.4,-0.8,1.8,2470.906,13.29,0.011,185.2
2022-08-25T00:58:03,42.805,6.029,-0.037,0.001,-0.018,103.0,102.0,100.0,13.4,1505.2,332.2,-0.7,1.8,2470.898,13.29,0.037,271.5
2022-08-25T01:04:03,42.805,6.029,-0.008,-0.001,-0.003,103.0,104.0,102.0,13.3,1505.2,320.2,-0.8,1.8,2470.945,13.29,0.008,262.9
2022-08-25T01:07:03,42.805,6.029,-0.03,-0.016,-0.044,102.0,102.0,101.0,13.3,1505.2,324.4,-0.8,1.8,2470.955,13.29,0.034,241.9
2022-08-25T01:10:03,42.805,6.029,-0.017,0.002,-0.02,102.0,103.0,101.0,13.4,1505.2,333.1,-0.7,1.8,2470.934,13.29,0.017,276.7
2022-08-25T01:13:03,42.805,6.029,-0.019,0.009,-0.006,103.0,104.0,100.0,13.4,1505.2,317.2,-0.7,1.8,2470.916,13.29,0.021,295.3
2022-08-25T01:16:03,42.805,6.029,-0.027,0.014,-0.016,102.0,103.0,101.0,13.4,1505.2,327.3,-0.8,1.8,2470.955,13.29,0.03,297.4
2022-08-25T01:19:03,42.805,6.029,-0.032,0.002,-0.005,101.0,103.0,101.0,13.4,1505.2,322.8,-0.7,1.8,2470.936,13.29,0.032,273.6
2022-08-25T01:22:03,42.805,6.029,-0.01,0.003,-0.024,102.0,101.0,102.0,13.4,1505.2,323.1,-0.7,1.8,2470.896,13.29,0.01,286.7
2022-08-25T01:25:03,42.805,6.029,-0.012,0.014,0.002,100.0,102.0,102.0,13.3,1505.2,325.2,-0.7,1.8,2470.937,13.29,0.018,319.4
2022-08-25T01:28:03,42.805,6.029,-0.018,0.002,-0.015,102.0,101.0,101.0,13.4,1505.2,321.8,-0.8,1.8,2470.884,13.29,0.018,276.3
2022-08-25T01:31:03,42.805,6.029,-0.037,0.003,-0.018,102.0,102.0,100.0,13.4,1505.2,323.8,-0.7,1.8,2470.918,13.29,0.037,274.6
2022-08-25T01:34:03,42.805,6.029,-0.029,0.016,-0.012,102.0,103.0,100.0,13.4,1505.2,329.1,-0.8,1.8,2470.947,13.29,0.033,298.9
2022-08-25T01:37:03,42.805,6.029,-0.046,0.014,-0.029,102.0,103.0,99.0,13.4,1505.2,319.8,-0.7,1.8,2470.947,13.29,0.048,286.9
2022-08-25T01:40:03,42.805,6.029,-0.014,0.006,-0.003,104.0,104.0,99.0,13.4,1505.2,333.9,-0.8,1.8,2470.929,13.29,0.015,293.2
2022-08-25T01:43:03,42.805,6.029,-0.01,-0.006,-0.035,101.0,102.0,102.0,13.4,1505.2,325.5,-0.7,1.8,2470.952,13.29,0.011,239.0
2022-08-25T01:46:03,42.805,6.029,-0.027,-0.011,-0.023,102.0,102.0,101.0,13.4,1505.2,317.2,-0.8,1.8,2470.916,13.29,0.029,247.8
2022-08-25T01:49:03,42.805,6.029,0.001,0.017,0.0,104.0,102.0,100.0,13.3,1505.2,326.9,-0.7,1.8,2470.891,13.29,0.017,3.4
2022-08-25T01:52:03,42.805,6.029,-0.004,-0.001,-0.018,102.0,104.0,100.0,13.4,1505.2,333.1,-0.8,1.8,2470.951,13.29,0.004,256.0
2022-08-25T01:55:03,42.805,6.029,-0.02,0.008,0.001,102.0,103.0,102.0,13.4,1505.2,323.2,-0.7,1.8,2470.937,13.29,0.021,291.8
2022-08-25T01:58:03,42.805,6.029,-0.01,0.003,-0.024,103.0,102.0,101.0,13.3,1505.2,328.1,-0.8,1.8,2470.908,13.29,0.01,286.7
2022-08-25T02:04:03,42.805,6.029,-0.002,-0.008,-0.051,103.0,101.0,100.0,13.4,1505.2,327.1,-0.7,1.8,2470.968,13.29,0.008,194.0
2022-08-25T02:07:03,42.805,6.029,-0.029,0.011,0.0,102.0,102.0,101.0,13.4,1505.2,331.1,-0.8,1.8,2470.955,13.29,0.031,290.8
2022-08-25T02:10:03,42.805,6.029,0.004,0.006,-0.012,102.0,102.0,101.0,13.4,1505.2,322.6,-0.8,1.8,2470.955,13.29,0.007,33.7
2022-08-25T02:13:03,42.805,6.029,-0.026,-0.004,-0.016,103.0,102.0,100.0,13.4,1505.2,319.9,-0.7,1.8,2470.949,13.29,0.026,261.3
2022-08-25T02:16:03,42.805,6.029,-0.004,-0.004,-0.013,103.0,103.0,101.0,13.4,1505.2,323.1,-0.7,1.8,2470.916,13.29,0.005,225.0
2022-08-25T02:19:03,42.805,6.029,-0.004,0.019,0.003,102.0,103.0,100.0,13.4,1505.2,333.7,-0.7,1.8,2470.927,13.29,0.019,348.1
2022-08-25T02:22:03,42.805,6.029,-0.033,0.033,0.021,101.0,102.0,101.0,13.3,1505.2,321.2,-0.8,1.8,2470.936,13.29,0.046,315.0
2022-08-25T02:25:03,42.805,6.029,-0.026,0.008,-0.039,102.0,107.0,101.0,13.4,1505.2,330.8,-0.8,1.8,2470.895,13.29,0.027,287.1
2022-08-25T02:28:03,42.805,6.029,-0.046,0.015,0.015,101.0,102.0,101.0,13.4,1505.2,324.3,-0.7,1.8,2470.895,13.29,0.048,288.1
2022-08-25T02:31:03,42.805,6.029,-0.025,0.014,-0.016,102.0,101.0,101.0,13.4,1505.2,321.7,-0.8,1.8,2470.911,13.29,0.028,299.3
2022-08-25T02:34:03,42.805,6.029,-0.019,-0.011,-0.01,102.0,102.0,101.0,13.4,1505.2,321.6,-0.8,1.8,2470.937,13.29,0.021,239.9
2022-08-25T02:37:03,42.805,6.029,0.006,0.012,-0.01,103.0,102.0,99.0,13.3,1505.2,332.1,-0.8,1.8,2470.927,13.29,0.013,26.6
2022-08-25T02:40:03,42.805,6.029,-0.014,0.008,0.002,102.0,102.0,100.0,13.4,1505.2,323.2,-0.8,1.8,2470.926,13.29,0.016,299.7
2022-08-25T02:43:03,42.805,6.029,-0.004,0.017,0.003,102.0,100.0,101.0,13.4,1505.2,328.1,-0.7,1.8,2470.903,13.29,0.017,346.8
2022-08-25T02:46:03,42.805,6.029,-0.021,0.002,-0.013,102.0,102.0,100.0,13.3,1505.2,319.1,-0.8,1.8,2470.946,13.29,0.021,275.4
2022-08-25T02:49:03,42.805,6.029,-0.026,0.003,-0.017,101.0,102.0,102.0,13.4,1505.2,324.5,-0.7,1.8,2470.925,13.29,0.026,276.6
2022-08-25T02:52:03,42.805,6.029,-0.003,0.013,0.003,104.0,102.0,100.0,13.3,1505.2,322.4,-0.7,1.9,2470.947,13.29,0.013,347.0
2022-08-25T02:55:03,42.805,6.029,-0.023,-0.007,-0.021,102.0,104.0,100.0,13.3,1505.2,327.1,-0.8,1.8,2470.932,13.29,0.024,253.1
2022-08-25T02:58:03,42.805,6.029,-0.012,0.015,0.034,101.0,102.0,101.0,13.4,1505.2,323.2,-0.7,1.8,2470.916,13.29,0.019,321.3
2022-08-25T03:04:03,42.805,6.029,0.008,-0.008,-0.047,102.0,101.0,100.0,13.4,1505.2,326.3,-0.8,1.8,2470.991,13.29,0.011,135.0
2022-08-25T03:07:03,42.805,6.029,-0.009,-0.008,0.008,101.0,103.0,100.0,13.3,1505.2,326.4,-0.7,1.8,2470.981,13.29,0.012,228.4
2022-08-25T03:10:03,42.805,6.029,-0.01,0.003,0.004,102.0,101.0,101.0,13.4,1505.2,333.4,-0.7,1.8,2470.997,13.29,0.01,286.7
2022-08-25T03:13:03,42.805,6.029,-0.025,0.005,-0.029,103.0,102.0,100.0,13.4,1505.2,326.4,-0.8,1.8,2470.948,13.29,0.025,281.3
2022-08-25T03:16:03,42.805,6.029,-0.003,0.01,0.023,102.0,102.0,101.0,13.4,1505.2,326.1,-0.8,1.8,2470.935,13.29,0.01,343.3
2022-08-25T03:19:03,42.805,6.029,-0.003,0.001,-0.009,102.0,103.0,100.0,13.3,1505.2,318.7,-0.8,1.8,2470.986,13.29,0.003,288.4
2022-08-25T03:22:03,42.805,6.029,-0.015,0.004,-0.025,102.0,102.0,101.0,13.4,1505.2,326.3,-0.8,1.8,2470.933,13.29,0.015,284.9
2022-08-25T03:25:03,42.805,6.029,-0.017,-0.005,-0.022,102.0,103.0,100.0,13.3,1505.2,324.6,-0.7,1.8,2470.979,13.29,0.017,253.6
2022-08-25T03:28:03,42.805,6.029,0.016,-0.007,0.015,101.0,102.0,101.0,13.3,1505.2,323.2,-0.7,1.8,2470.976,13.29,0.017,113.6
2022-08-25T03:31:03,42.805,6.029,-0.022,-0.008,-0.02,102.0,101.0,100.0,13.4,1505.2,328.3,-0.8,1.8,2470.945,13.29,0.023,250.0
2022-08-25T03:34:03,42.805,6.029,-0.016,0.002,-0.025,101.0,102.0,101.0,13.3,1505.2,319.4,-0.7,1.8,2470.945,13.29,0.016,277.1
2022-08-25T03:37:03,42.805,6.029,-0.008,-0.005,0.008,104.0,101.0,101.0,13.4,1505.2,320.6,-0.8,1.8,2470.956,13.29,0.009,238.0
2022-08-25T03:40:03,42.805,6.029,-0.031,0.002,-0.054,101.0,103.0,100.0,13.4,1505.2,324.5,-0.7,1.8,2470.944,13.29,0.031,273.7
2022-08-25T03:43:03,42.805,6.029,-0.006,0.012,-0.017,103.0,102.0,100.0,13.3,1505.2,329.2,-0.8,1.8,2470.957,13.29,0.013,333.4
2022-08-25T03:46:03,42.805,6.029,-0.006,0.02,0.0,102.0,101.0,101.0,13.3,1505.2,328.3,-0.8,1.8,2470.935,13.29,0.02,343.3
2022-08-25T03:49:03,42.805,6.029,-0.003,0.028,0.013,102.0,102.0,101.0,13.4,1505.2,333.4,-0.8,1.8,2470.947,13.29,0.028,353.9
2022-08-25T03:52:03,42.805,6.029,0.0,0.015,-0.014,102.0,102.0,100.0,13.4,1505.2,320.6,-0.8,1.8,2470.972,13.29,0.015,0.0
2022-08-25T03:55:03,42.805,6.029,-0.014,0.012,0.004,103.0,102.0,100.0,13.4,1505.2,321.2,-0.8,1.8,2470.965,13.29,0.018,310.6
2022-08-25T03:58:03,42.805,6.029,0.009,-0.004,-0.017,102.0,103.0,101.0,13.4,1505.2,326.3,-0.8,1.8,2470.972,13.29,0.009,114.0
2022-08-25T04:04:03,42.805,6.029,-0.018,-0.012,-0.045,102.0,102.0,101.0,13.4,1505.2,328.3,-0.8,1.7,2471.01,13.29,0.021,236.3
2022-08-25T04:07:03,42.805,6.029,-0.017,-0.011,-0.025,102.0,103.0,101.0,13.3,1505.2,321.0,-0.8,1.8,2471.024,13.29,0.02,237.1
2022-08-25T04:10:03,42.805,6.029,0.006,0.005,-0.001,102.0,101.0,101.0,13.3,1505.2,319.7,-0.8,1.9,2471.015,13.29,0.007,50.2
2022-08-25T04:13:03,42.805,6.029,-0.02,0.007,-0.018,102.0,103.0,101.0,13.4,1505.2,322.4,-0.7,1.8,2470.98,13.29,0.021,289.3
2022-08-25T04:16:03,42.805,6.029,-0.014,0.004,-0.011,101.0,102.0,101.0,13.3,1505.2,323.8,-0.8,1.8,2470.996,13.29,0.014,285.9
2022-08-25T04:19:03,42.805,6.029,-0.011,0.002,0.0,104.0,100.0,102.0,13.4,1505.2,319.4,-0.8,1.8,2470.993,13.29,0.011,280.3
2022-08-25T04:22:03,42.805,6.029,-0.001,0.0,-0.019,102.0,102.0,101.0,13.3,1505.2,326.6,-0.7,1.8,2470.997,13.29,0.001,270.0
2022-08-25T04:25:03,42.805,6.029,-0.024,0.003,-0.032,101.0,101.0,101.0,13.4,1505.2,326.1,-0.8,1.8,2470.947,13.29,0.024,277.1
2022-08-25T04:28:03,42.805,6.029,-0.012,0.013,-0.007,103.0,101.0,102.0,13.3,1505.2,333.4,-0.8,1.8,2471.001,13.29,0.017,317.3
2022-08-25T04:31:03,42.805,6.029,0.0,0.023,0.007,102.0,103.0,100.0,13.4,1505.2,320.2,-0.8,1.8,2471.01,13.29,0.023,0.0
2022-08-25T04:34:03,42.805,6.029,-0.009,0.007,-0.011,104.0,100.0,101.0,13.3,1505.2,321.6,-0.7,1.8,2470.987,13.29,0.011,307.9
2022-08-25T04:37:03,42.805,6.029,0.001,-0.009,-0.021,103.0,102.0,100.0,13.3,1505.2,321.0,-0.7,1.8,2470.994,13.29,0.009,173.7
2022-08-25T04:40:03,42.805,6.029,-0.003,0.003,-0.025,101.0,102.0,101.0,13.4,1505.2,325.9,-0.8,1.8,2470.987,13.29,0.004,315.0
2022-08-25T04:43:03,42.805,6.029,0.012,0.015,0.018,103.0,101.0,101.0,13.4,1505.2,320.4,-0.7,1.8,2471.015,13.29,0.019,38.7
2022-08-25T04:46:03,42.805,6.029,0.004,-0.002,0.01,101.0,102.0,102.0,13.4,1505.2,328.3,-0.8,1.8,2470.967,13.29,0.004,116.6
2022-08-25T04:49:03,42.805,6.029,-0.04,0.012,-0.005,103.0,101.0,101.0,13.4,1505.2,320.2,-0.8,1.8,2470.998,13.29,0.041,286.7
2022-08-25T04:52:03,42.805,6.029,0.011,-0.021,-0.035,103.0,101.0,101.0,13.4,1505.2,321.6,-0.7,1.8,2470.981,13.29,0.023,152.4
2022-08-25T04:55:03,42.805,6.029,-0.013,0.009,0.023,102.0,101.0,102.0,13.3,1505.2,328.5,-0.8,1.8,2471.012,13.29,0.015,304.7
2022-08-25T04:58:03,42.805,6.029,-0.011,0.002,-0.003,102.0,102.0,101.0,13.4,1505.2,322.5,-0.8,1.8,2470.999,13.29,0.011,280.3
2022-08-25T05:04:03,42.805,6.029,-0.011,0.008,-0.021,102.0,102.0,100.0,13.4,1505.2,327.3,-0.7,1.9,2471.03,13.29,0.013,306.0
2022-08-25T05:07:03,42.805,6.029,-0.005,0.015,-0.001,102.0,105.0,100.0,13.4,1505.2,329.8,-0.8,1.8,2471.05,13.29,0.015,341.6
2022-08-25T05:10:03,42.805,6.029,0.026,-0.003,0.001,101.0,102.0,101.0,13.3,1505.2,328.2,-0.8,1.8,2471.008,13.29,0.026,96.6
2022-08-25T05:13:03,42.805,6.029,-0.01,0.026,0.045,102.0,103.0,101.0,13.3,1505.2,328.1,-0.7,1.8,2471.03,13.29,0.027,339.0
2022-08-25T05:16:03,42.805,6.029,-0.021,0.009,0.011,103.0,103.0,101.0,13.3,1505.2,333.4,-0.8,1.8,2471.003,13.29,0.022,293.2
2022-08-25T05:19:03,42.805,6.029,-0.01,-0.023,-0.019,102.0,102.0,101.0,13.4,1505.2,317.2,-0.7,1.8,2470.999,13.29,0.025,203.5
2022-08-25T05:22:03,42.805,6.029,0.001,0.016,0.013,100.0,104.0,101.0,13.3,1505.2,320.3,-0.8,1.8,2471.006,13.29,0.016,3.6
2022-08-25T05:25:03,42.805,6.029,0.0,-0.007,0.001,102.0,102.0,100.0,13.3,1505.2,322.5,-0.7,1.8,2470.991,13.29,0.007,180.0
2022-08-25T05:28:03,42.805,6.029,0.008,-0.001,-0.025,103.0,102.0,100.0,13.4,1505.2,327.1,-0.7,1.8,2471.027,13.29,0.008,97.1
2022-08-25T05:31:03,42.805,6.029,-0.022,0.018,-0.018,103.0,102.0,100.0,13.3,1505.2,324.9,-0.8,1.8,2470.93,13.29,0.028,309.3
2022-08-25T05:34:03,42.805,6.029,0.014,-0.015,-0.015,103.0,103.0,99.0,13.4,1505.2,326.8,-0.8,1.8,2471.0,13.29,0.02,137.0
2022-08-25T05:37:03,42.805,6.029,0.0,0.011,-0.008,102.0,101.0,101.0,13.3,1505.2,319.1,-0.8,1.8,2470.953,13.29,0.011,0.0
2022-08-25T05:40:03,42.805,6.029,-0.017,0.004,-0.006,102.0,102.0,103.0,13.4,1505.2,327.3,-0.8,1.8,2471.015,13.29,0.017,283.2
2022-08-25T05:43:03,42.805,6.029,-0.005,0.009,-0.005,102.0,103.0,101.0,13.4,1505.2,325.0,-0.8,1.8,2471.013,13.29,0.01,330.9
2022-08-25T05:46:03,42.805,6.029,-0.005,0.016,0.026,101.0,102.0,101.0,13.4,1505.2,322.6,-0.8,1.8,2470.993,13.29,0.016,342.6
2022-08-25T05:49:03,42.805,6.029,-0.004,0.012,0.0,103.0,102.0,100.0,13.4,1505.2,327.6,-0.8,1.8,2471.003,13.29,0.012,341.6
2022-08-25T05:52:03,42.805,6.029,0.004,0.0,-0.02,102.0,102.0,101.0,13.4,1505.2,322.2,-0.8,1.9,2471.001,13.29,0.004,90.0
2022-08-25T05:55:03,42.805,6.029,0.002,0.015,-0.003,105.0,100.0,101.0,13.3,1505.2,328.9,-0.8,1.8,2470.981,13.29,0.015,7.6
2022-08-25T05:58:03,42.805,6.029,-0.02,0.016,0.003,102.0,102.0,101.0,13.4,1505.2,318.6,-0.7,1.8,2470.982,13.29,0.025,308.7
2022-08-25T06:04:03,42.805,6.029,-0.006,0.001,-0.006,102.0,102.0,101.0,13.3,1505.2,332.5,-0.8,1.8,2471.042,13.29,0.006,279.5
2022-08-25T06:07:03,42.805,6.029,-0.006,0.02,-0.002,101.0,102.0,101.0,13.4,1505.2,329.0,-0.8,1.8,2470.997,13.29,0.02,343.3
2022-08-25T06:10:03,42.805,6.029,-0.009,0.018,-0.01,103.0,102.0,100.0,13.3,1505.2,322.8,-0.7,1.8,2471.023,13.29,0.02,333.4
2022-08-25T06:13:03,42.805,6.029,-0.008,0.012,-0.004,103.0,102.0,100.0,13.3,1505.2,326.1,-0.8,1.8,2471.035,13.29,0.014,326.3
2022-08-25T06:16:03,42.805,6.029,-0.024,0.013,0.028,102.0,103.0,100.0,13.3,1505.2,324.6,-0.8,1.8,2471.033,13.29,0.027,298.4
2022-08-25T06:19:03,42.805,6.029,0.011,0.015,-0.002,102.0,101.0,101.0,13.3,1505.2,320.6,-0.7,1.8,2471.0,13.29,0.018,36.3
2022-08-25T06:22:03,42.805,6.029,-0.01,0.001,0.009,100.0,104.0,101.0,13.3,1505.2,331.0,-0.8,1.8,2471.014,13.29,0.01,275.7
2022-08-25T06:25:03,42.805,6.029,0.013,-0.001,0.006,103.0,103.0,101.0,13.4,1505.2,331.4,-0.8,1.8,2471.012,13.29,0.013,94.4
2022-08-25T06:28:03,42.805,6.029,0.0,-0.002,0.0,103.0,102.0,100.0,13.4,1505.2,322.1,-0.8,1.8,2470.994,13.29,0.002,180.0
2022-08-25T06:31:03,42.805,6.029,-0.016,-0.001,-0.016,102.0,102.0,100.0,13.4,1505.2,320.7,-0.8,1.8,2470.999,13.29,0.016,266.4
2022-08-25T06:34:03,42.805,6.029,0.015,0.019,0.032,102.0,102.0,101.0,13.4,1505.2,331.5,-0.8,1.8,2470.988,13.29,0.024,38.3
2022-08-25T06:37:03,42.805,6.029,0.0,-0.008,-0.01,102.0,101.0,101.0,13.4,1505.2,327.0,-0.8,1.8,2470.992,13.29,0.008,180.0
2022-08-25T06:40:03,42.805,6.029,0.012,0.003,-0.005,102.0,101.0,101.0,13.3,1505.2,321.1,-0.8,1.8,2470.961,13.29,0.012,76.0
2022-08-25T06:43:03,42.805,6.029,-0.009,0.001,-0.01,103.0,103.0,100.0,13.3,1505.2,325.3,-0.7,1.8,2470.987,13.29,0.009,276.3
2022-08-25T06:46:03,42.805,6.029,-0.003,-0.008,-0.011,102.0,103.0,101.0,13.3,1505.2,332.2,-0.7,1.8,2470.976,13.29,0.008,200.6
2022-08-25T06:49:03,42.805,6.029,-0.028,-0.008,-0.034,102.0,101.0,101.0,13.4,1505.2,329.7,-0.8,1.8,2471.012,13.29,0.029,254.1
2022-08-25T06:52:03,42.805,6.029,-0.023,0.009,0.009,103.0,102.0,101.0,13.4,1505.2,322.1,-0.8,1.9,2470.977,13.29,0.024,291.4
2022-08-25T06:55:03,42.805,6.029,-0.009,0.031,0.033,103.0,102.0,101.0,13.4,1505.2,323.3,-0.8,1.8,2470.954,13.29,0.032,343.8
2022-08-25T06:58:03,42.805,6.029,-0.008,0.006,-0.013,101.0,104.0,102.0,13.4,1505.2,317.7,-0.8,1.8,2471.016,13.29,0.01,306.9
2022-08-25T07:04:03,42.805,6.029,-0.02,0.016,-0.014,102.0,101.0,101.0,13.4,1505.2,327.3,-0.8,1.8,2471.006,13.29,0.025,308.7
2022-08-25T07:07:03,42.805,6.029,-0.008,0.004,-0.024,104.0,103.0,101.0,13.3,1505.2,328.5,-0.7,1.8,2471.033,13.29,0.008,296.6
2022-08-25T07:10:03,42.805,6.029,0.0,0.0,-0.006,103.0,102.0,101.0,13.4,1505.2,319.3,-0.7,1.8,2471.037,13.29,0.0,0.0
2022-08-25T07:13:03,42.805,6.029,-0.017,0.014,-0.006,102.0,103.0,100.0,13.4,1505.2,332.8,-0.8,1.9,2471.01,13.29,0.022,309.5
2022-08-25T07:16:03,42.805,6.029,-0.001,0.006,-0.014,103.0,102.0,101.0,13.4,1505.2,320.1,-0.7,1.8,2470.989,13.29,0.006,350.5
2022-08-25T07:19:03,42.805,6.029,0.008,0.015,0.01,104.0,101.0,102.0,13.4,1505.2,325.6,-0.8,1.8,2470.965,13.29,0.017,28.1
2022-08-25T07:22:03,42.805,6.029,-0.022,0.0,-0.02,105.0,103.0,100.0,13.4,1505.2,323.2,-0.8,1.8,2470.993,13.29,0.022,270.0
2022-08-25T07:25:03,42.805,6.029,-0.004,0.016,-0.006,104.0,103.0,101.0,13.4,1505.2,328.5,-0.8,1.8,2470.989,13.3,0.016,346.0
2022-08-25T07:28:03,42.805,6.029,-0.015,0.018,-0.008,103.0,102.0,101.0,13.3,1505.2,327.1,-0.7,1.8,2470.984,13.3,0.023,320.2
2022-08-25T07:31:03,42.805,6.029,-0.008,-0.002,-0.027,103.0,103.0,102.0,13.4,1505.2,317.7,-0.8,1.8,2470.972,13.3,0.008,256.0
2022-08-25T07:34:03,42.805,6.029,0.001,0.007,-0.016,104.0,101.0,102.0,13.3,1505.2,333.4,-0.8,1.8,2470.952,13.3,0.007,8.1
2022-08-25T07:37:03,42.805,6.029,0.0,-0.003,-0.02,103.0,102.0,101.0,13.3,1505.2,322.7,-0.8,1.8,2470.946,13.3,0.003,180.0
2022-08-25T07:40:03,42.805,6.029,-0.004,0.001,-0.002,102.0,103.0,100.0,13.4,1505.2,330.8,-0.8,1.8,2470.973,13.3,0.004,284.0
2022-08-25T07:43:03,42.805,6.029,0.003,0.011,0.004,102.0,104.0,101.0,13.4,1505.2,320.5,-0.7,1.8,2470.981,13.3,0.011,15.3
2022-08-25T07:46:03,42.805,6.029,-0.022,0.019,0.003,103.0,103.0,102.0,13.4,1505.2,330.5,-0.8,1.8,2470.937,13.3,0.029,310.8
2022-08-25T07:49:03,42.805,6.029,-0.006,0.017,0.003,103.0,102.0,101.0,13.3,1505.2,325.7,-0.8,1.8,2470.963,13.3,0.018,340.6
2022-08-25T07:52:03,42.805,6.029,-0.017,0.001,-0.024,102.0,102.0,101.0,13.4,1505.2,317.7,-0.8,1.8,2470.971,13.3,0.017,273.4
2022-08-25T07:55:03,42.805,6.029,-0.006,-0.001,-0.016,102.0,102.0,101.0,13.4,1505.2,319.0,-0.7,1.8,2470.964,13.3,0.006,260.5
2022-08-25T07:58:03,42.805,6.029,-0.005,0.002,-0.039,102.0,102.0,101.0,13.4,1505.2,325.7,-0.7,1.8,2470.956,13.3,0.005,291.8
2022-08-25T08:04:03,42.805,6.029,-0.014,-0.009,-0.022,104.0,103.0,100.0,13.3,1505.2,324.9,-0.8,1.8,2470.969,13.29,0.016,237.3
2022-08-25T08:07:03,42.805,6.029,0.002,0.006,-0.025,103.0,101.0,101.0,13.3,1505.2,327.3,-0.8,1.9,2470.971,13.29,0.006,18.4
2022-08-25T08:10:03,42.805,6.029,0.007,0.007,-0.023,103.0,101.0,101.0,13.3,1505.2,322.4,-0.8,1.8,2471.019,13.29,0.009,45.0
2022-08-25T08:13:03,42.805,6.029,0.011,-0.007,-0.011,106.0,103.0,100.0,13.4,1505.2,323.3,-0.8,1.8,2471.003,13.29,0.013,122.5
2022-08-25T08:16:03,42.805,6.029,-0.011,0.024,0.005,103.0,103.0,100.0,13.4,1505.2,325.0,-0.7,1.8,2470.95,13.29,0.026,335.4
2022-08-25T08:19:03,42.805,6.029,-0.004,-0.004,0.009,102.0,103.0,101.0,13.3,1505.2,324.2,-0.8,1.9,2470.965,13.29,0.005,225.0
2022-08-25T08:22:03,42.805,6.029,0.008,-0.011,0.004,102.0,104.0,100.0,13.4,1505.2,327.8,-0.8,1.8,2470.984,13.29,0.013,144.0
2022-08-25T08:25:03,42.805,6.029,0.005,0.002,-0.027,102.0,103.0,101.0,13.3,1505.2,318.7,-0.7,1.8,2470.94,13.29,0.005,68.2
2022-08-25T08:28:03,42.805,6.029,-0.001,0.007,-0.009,103.0,102.0,100.0,13.4,1505.2,322.0,-0.7,1.8,2470.974,13.29,0.007,351.9
2022-08-25T08:31:03,42.805,6.029,0.016,0.006,-0.023,104.0,102.0,101.0,13.4,1505.2,326.3,-0.7,1.8,2470.959,13.29,0.017,69.4
2022-08-25T08:34:03,42.805,6.029,0.008,-0.011,-0.009,102.0,104.0,101.0,13.4,1505.2,328.3,-0.8,1.8,2470.955,13.29,0.013,144.0
2022-08-25T08:37:03,42.805,6.029,0.004,0.008,-0.001,104.0,103.0,100.0,13.4,1505.2,323.5,-0.7,1.8,2470.975,13.29,0.008,26.6
2022-08-25T08:40:03,42.805,6.029,-0.002,-0.015,-0.046,103.0,101.0,104.0,13.4,1505.2,324.9,-0.7,1.8,2470.935,13.29,0.015,187.6
2022-08-25T08:43:03,42.805,6.029,-0.011,0.003,-0.043,103.0,102.0,102.0,13.4,1505.2,328.2,-0.7,1.8,2470.936,13.29,0.011,285.3
2022-08-25T08:46:03,42.805,6.029,-0.019,-0.001,0.004,106.0,101.0,101.0,13.4,1505.2,327.8,-0.8,1.8,2470.961,13.29,0.019,267.0
2022-08-25T08:49:03,42.805,6.029,0.004,0.0,-0.003,103.0,102.0,102.0,13.4,1505.2,319.0,-0.7,1.8,2470.942,13.29,0.004,90.0
2022-08-25T08:52:03,42.805,6.029,-0.025,0.015,-0.027,102.0,102.0,101.0,13.4,1505.2,329.4,-0.8,1.8,2470.941,13.29,0.029,301.0
2022-08-25T08:55:03,42.805,6.029,0.0,-0.006,-0.005,102.0,103.0,100.0,13.4,1505.2,322.9,-0.7,1.9,2470.939,13.29,0.006,180.0
2022-08-25T08:58:03,42.805,6.029,-0.011,0.0,-0.027,105.0,104.0,99.0,13.4,1505.2,320.7,-0.8,1.8,2470.978,13.29,0.011,270.0
2022-08-25T09:04:03,42.805,6.029,-0.004,0.024,-0.023,103.0,104.0,101.0,13.4,1505.2,327.5,-0.8,1.8,2470.999,13.29,0.024,350.5
2022-08-25T09:07:03,42.805,6.029,-0.02,-0.011,-0.047,109.0,103.0,100.0,13.3,1505.2,323.0,-0.8,1.8,2470.981,13.29,0.022,241.2
2022-08-25T09:10:03,42.805,6.029,0.016,0.016,-0.006,103.0,101.0,100.0,13.3,1505.2,321.4,-0.8,1.8,2470.955,13.29,0.022,45.0
2022-08-25T09:13:03,42.805,6.029,0.02,-0.021,0.001,101.0,103.0,101.0,13.4,1505.2,323.1,-0.8,1.8,2470.911,13.29,0.028,136.4
2022-08-25T09:16:03,42.805,6.029,-0.012,-0.008,-0.013,102.0,104.0,100.0,13.3,1505.2,324.5,-0.8,1.8,2470.936,13.29,0.014,236.3
2022-08-25T09:19:03,42.805,6.029,0.001,-0.001,-0.006,102.0,101.0,101.0,13.4,1505.2,323.6,-0.7,1.8,2470.925,13.29,0.001,135.0
2022-08-25T09:22:03,42.805,6.029,0.011,-0.008,-0.022,103.0,102.0,100.0,13.3,1505.2,319.8,-0.8,1.8,2470.922,13.29,0.013,126.0
2022-08-25T09:25:03,42.805,6.029,-0.023,0.011,-0.022,103.0,101.0,101.0,13.3,1505.2,328.6,-0.8,1.8,2470.924,13.29,0.025,295.6
2022-08-25T09:28:03,42.805,6.029,-0.006,0.0,0.0,104.0,102.0,99.0,13.3,1505.2,323.5,-0.8,1.8,2470.924,13.29,0.006,270.0
2022-08-25T09:31:03,42.805,6.029,0.003,0.0,-0.006,103.0,103.0,102.0,13.3,1505.2,322.9,-0.8,1.8,2470.944,13.29,0.003,90.0
2022-08-25T09:34:03,42.805,6.029,0.014,0.004,-0.015,101.0,101.0,100.0,13.4,1505.2,327.6,-0.8,1.8,2470.894,13.29,0.014,74.1
2022-08-25T09:37:03,42.805,6.029,-0.002,-0.021,-0.038,102.0,102.0,100.0,13.3,1505.2,329.0,-0.8,1.8,2470.927,13.29,0.021,185.4
2022-08-25T09:40:03,42.805,6.029,0.0,0.012,-0.023,103.0,102.0,100.0,13.4,1505.2,325.3,-0.8,1.9,2470.907,13.29,0.012,0.0
2022-08-25T09:43:03,42.805,6.029,-0.003,0.005,-0.029,101.0,103.0,101.0,13.4,1505.2,319.4,-0.7,1.8,2470.885,13.29,0.005,329.0
2022-08-25T09:46:03,42.805,6.029,0.016,-0.005,0.017,102.0,102.0,102.0,13.3,1505.2,334.5,-0.8,1.8,2470.911,13.29,0.016,107.4
2022-08-25T09:49:03,42.805,6.029,-0.008,0.0,-0.012,103.0,104.0,100.0,13.3,1505.2,328.6,-0.7,1.8,2470.893,13.29,0.008,270.0
2022-08-25T09:52:03,42.805,6.029,0.012,0.008,-0.008,103.0,103.0,101.0,13.3,1505.2,320.1,-0.7,1.8,2470.931,13.29,0.014,56.3
2022-08-25T09:55:03,42.805,6.029,0.004,-0.013,-0.024,103.0,103.0,101.0,13.4,1505.2,328.7,-0.8,1.8,2470.905,13.29,0.013,162.9